Content
SEND FEEDBACK

Daily
Averages
Monthly
Summary
United States of America

SHUNGNAK, ALASKA


Home > North America > United States > Alaska
Elevation: 14 feet     Latitude: 66 54N     Longitude: 156 52W

WEATHER
 
SELECT A DAY
Number of Records: 411,031;   Date Range: 1/1/95 - 9/16/14
 
SHARE

PRINT THIS DATA

[ ← Previous Day ]
WEATHER ALMANAC - JANUARY 23, 2013
[ Next Day → ]
[ °C ]   °F
Weather ElementAverageHighLow
Temperature-5.9 °F-4 °F (12:36 am)-7.6 °F (3:36 pm)
Dewpoint-21.7 °F-16.6 °F (12:36 am)-27.4 °F (7:56 pm)
Humidity46.8 %55 % (12:36 am)38 % (7:56 pm)
Barometer29.93 in30.00 in (11:16 pm)29.90 in (11:36 am)
Wind Speed10.1 mph15 mph (7:16 am)
Wind Gust25.3 mph (6:56 am)
Weather ElementAverage
Visibility10 mi
Wind DirectionNNE (36.1 °)

Weather ElementTotal
Precipitation---
Heating Degree Days70.8 (Base 65)
Averaged from 71 records on January 23, 2013
WEATHER CONDITIONS BREAKOUT
WIND DIRECTION BREAKOUT
WEATHER BY HOUR - JANUARY 23, 2013
[ °C ]   °F
Local TimeTemperatureDewpointHumidityBarometerVisibilityWind DirectionWind SpeedGust SpeedPrecipitationEventsConditions
12:36 AM-4.0 °F-16.6 °F55 %29.96 in10.0 miNNE (30°)11.5 mph16.1 mphClear
12:56 AM-4.0 °F-18.4 °F50 %29.96 in10.0 miNNE (20°)11.5 mph16.1 mphClear
1:16 AM-4.0 °F-18.4 °F50 %29.96 in10.0 miNNE (30°)12.7 mph19.6 mphClear
1:36 AM-5.8 °F-20.2 °F50 %29.96 in10.0 miNNE (30°)10.4 mph18.4 mphClear
1:56 AM-4.0 °F-18.4 °F50 %29.96 in10.0 miNNE (30°)12.7 mph21.9 mphClear
2:16 AM-4.0 °F-18.4 °F50 %29.95 in10.0 miNNE (30°)11.5 mph18.4 mphClear
2:36 AM-5.8 °F-18.4 °F55 %29.95 in10.0 miNNE (30°)12.7 mph18.4 mphClear
2:56 AM-5.8 °F-18.4 °F55 %29.95 in10.0 miNNE (30°)11.5 mph19.6 mphClear
3:16 AM-5.8 °F-18.4 °F55 %29.95 in10.0 miNE (40°)11.5 mph17.3 mphClear
3:36 AM-5.8 °F-18.4 °F55 %29.95 in10.0 miNNE (30°)11.5 mph19.6 mphClear
3:56 AM-5.8 °F-18.4 °F55 %29.95 in10.0 miNNE (30°)12.7 mph21.9 mphClear
4:16 AM-5.8 °F-20.2 °F50 %29.94 in10.0 miNE (40°)11.5 mph17.3 mphClear
4:36 AM-4.0 °F-18.4 °F50 %29.94 in10.0 miNNE (30°)10.4 mph16.1 mphClear
4:56 AM-5.8 °F-18.4 °F55 %29.93 in10.0 miNNE (30°)11.5 mph18.4 mphClear
5:16 AM-4.0 °F-18.4 °F50 %29.93 in10.0 miNNE (30°)12.7 mph20.7 mphClear
5:36 AM-5.8 °F-20.2 °F50 %29.93 in10.0 miNE (40°)9.2 mph20.7 mphClear
5:56 AM-4.0 °F-18.4 °F50 %29.93 in10.0 miNE (40°)10.4 mph20.7 mphClear
6:16 AM-5.8 °F-20.2 °F50 %29.93 in10.0 miNE (40°)9.2 mph17.3 mphClear
6:36 AM-5.8 °F-18.4 °F55 %29.92 in10.0 miNNE (30°)12.7 mph21.9 mphClear
6:56 AM-5.8 °F-18.4 °F55 %29.92 in10.0 miNE (40°)9.2 mph25.3 mphClear
7:16 AM-4.0 °F-18.4 °F50 %29.91 in10.0 miNNE (30°)15.0 mph24.2 mphClear
7:36 AM-5.8 °F-23.8 °F42 %29.92 in10.0 miNNE (30°)10.4 mph16.1 mphClear
7:56 AM-5.8 °F-18.4 °F55 %29.92 in10.0 miNE (40°)11.5 mph18.4 mphClear
8:16 AM-5.8 °F-22.0 °F46 %29.92 in10.0 miNE (40°)11.5 mph18.4 mphClear
8:36 AM-5.8 °F-18.4 °F55 %29.92 in10.0 miNE (40°)10.4 mph21.9 mphClear
8:56 AM-5.8 °F-20.2 °F50 %29.91 in10.0 miNE (40°)11.5 mphClear
9:16 AM-5.8 °F-20.2 °F50 %29.91 in10.0 miNE (40°)9.2 mphClear
9:36 AM-5.8 °F-20.2 °F50 %29.91 in10.0 miNE (40°)9.2 mph16.1 mphClear
9:56 AM-5.8 °F-20.2 °F50 %29.92 in10.0 miNE (40°)8.1 mph18.4 mphClear
10:16 AM-5.8 °F-20.2 °F50 %29.91 in10.0 miNE (40°)9.2 mphClear
10:36 AM-5.8 °F-20.2 °F50 %29.91 in10.0 miNNE (30°)9.2 mph16.1 mphClear
10:56 AM-5.8 °F-22.0 °F46 %29.91 in10.0 miNNE (30°)10.4 mph16.1 mphClear
11:16 AM-5.8 °F-20.2 °F50 %29.91 in10.0 miNE (40°)9.2 mph17.3 mphClear
11:36 AM-5.8 °F-20.2 °F50 %29.90 in10.0 miNE (40°)9.2 mphClear
11:56 AM-5.8 °F-20.2 °F50 %29.91 in10.0 miNE (40°)10.4 mph19.6 mphClear
12:16 PM-5.8 °F-20.2 °F50 %29.91 in10.0 miNE (40°)10.4 mph17.3 mphClear
12:36 PM-5.8 °F-22.0 °F46 %29.91 in10.0 miNE (40°)10.4 mph19.6 mphClear
12:56 PM-4.0 °F-20.2 °F46 %29.91 in10.0 miNE (40°)11.5 mph19.6 mphClear
1:16 PM-5.8 °F-22.0 °F46 %29.92 in10.0 miNE (40°)11.5 mph17.3 mphClear
1:36 PM-5.8 °F-22.0 °F46 %29.92 in10.0 miNE (50°)9.2 mph19.6 mphClear
1:56 PM-5.8 °F-22.0 °F46 %29.92 in10.0 miNE (40°)10.4 mph20.7 mphClear
2:16 PM-4.0 °F-22.0 °F42 %29.92 in10.0 miNE (50°)9.2 mph19.6 mphClear
2:36 PM-4.0 °F-22.0 °F42 %29.92 in10.0 miNE (40°)9.2 mph19.6 mphClear
2:56 PM-5.8 °F-23.8 °F42 %29.92 in10.0 miNE (40°)6.9 mph17.3 mphClear
3:16 PM-5.8 °F-23.8 °F42 %29.92 in10.0 miNE (50°)10.4 mph18.4 mphClear
3:36 PM-7.6 °F-25.6 °F41 %29.92 in10.0 miNNE (30°)10.4 mph18.4 mphClear
3:56 PM-7.6 °F-23.8 °F45 %29.91 in10.0 miNE (40°)12.7 mph21.9 mphClear
4:16 PM-7.6 °F-25.6 °F41 %29.91 in10.0 miNE (40°)10.4 mph19.6 mphClear
4:36 PM-7.6 °F-25.6 °F41 %29.92 in10.0 miNE (50°)9.2 mph20.7 mphClear
4:56 PM-7.6 °F-25.6 °F41 %29.92 in10.0 miNE (40°)11.5 mph24.2 mphClear
5:16 PM-7.6 °F-23.8 °F45 %29.92 in10.0 miNE (40°)12.7 mph19.6 mphClear
5:36 PM-7.6 °F-25.6 °F41 %29.92 in10.0 miNE (50°)10.4 mph19.6 mphClear
5:56 PM-7.6 °F-25.6 °F41 %29.92 in10.0 miNE (40°)10.4 mph19.6 mphClear
6:16 PM-7.6 °F-25.6 °F41 %29.93 in10.0 miNNE (30°)12.7 mph20.7 mphClear
6:36 PM-7.6 °F-23.8 °F45 %29.93 in10.0 miNE (40°)11.5 mph19.6 mphClear
6:56 PM-7.6 °F-25.6 °F41 %29.93 in10.0 miNE (40°)11.5 mph17.3 mphClear
7:16 PM-5.8 °F-23.8 °F42 %29.94 in10.0 miNNE (30°)11.5 mphClear
7:36 PM-5.8 °F-23.8 °F42 %29.94 in10.0 miNNE (30°)8.1 mphClear
7:56 PM-7.6 °F-27.4 °F38 %29.94 in10.0 miNNE (20°)5.8 mphClear
8:16 PM-5.8 °F-23.8 °F42 %29.95 in10.0 miNE (40°)6.9 mphClear
8:36 PM-5.8 °F-23.8 °F42 %29.95 in10.0 miNE (50°)9.2 mph16.1 mphClear
8:56 PM-5.8 °F-25.6 °F38 %29.95 in10.0 miNNE (30°)11.5 mph20.7 mphClear
9:16 PM-7.6 °F-25.6 °F41 %29.97 in10.0 miNNE (20°)3.5 mphClear
9:36 PM-5.8 °F-23.8 °F42 %29.97 in10.0 miNE (50°)5.8 mphClear
9:56 PM-5.8 °F-23.8 °F42 %29.97 in10.0 miNE (40°)11.5 mph18.4 mphClear
10:16 PM-7.6 °F-25.6 °F41 %29.97 in10.0 miNE (40°)12.7 mph18.4 mphClear
10:36 PM-7.6 °F-25.6 °F41 %29.98 in10.0 miNNE (30°)8.1 mphClear
10:56 PM-7.6 °F-23.8 °F45 %29.98 in10.0 miNE (40°)6.9 mphClear
11:16 PM-7.6 °F-25.6 °F41 %30.00 in10.0 miCalmClear
11:36 PM-5.8 °F-23.8 °F42 %30.00 in10.0 miNNE (30°)5.8 mphClear
11:56 PM-5.8 °F-23.8 °F42 %30.00 in10.0 miNNE (30°)6.9 mphClear
Hourly data recorded from PAFM, located miles away from Shungnak, Alaska







STORIES FROM OUR PARTNERS